カタログに戻る

COSMOS 2009

運用中軍事LEO
NORAD 19903·PAYLOAD·🇷🇺 Russia

打ち上げ Mar 24, 1989 から Plesetsk Cosmodrome

Loading…

次のパス (今後24時間)

TLE

最新Source: Space-Track

元期: Sep 14, 2026, 13:07 UTC

1 19903U 89025B   26257.54699610  .00000005  00000-0  12963-3 0  9997
2 19903  74.0142 343.5365 0041475 216.9618 154.1624 12.55950360718189

AllMySatでCOSMOS 2009をリアルタイム追跡

Download on the App Store